Time,TemperatureF,DewpointF,PressureIn,WindDirection,WindDirectionDegrees,WindSpeedMPH,WindSpeedGustMPH,Humidity,HourlyPrecipIn,Conditions,Clouds,dailyrainin,SoftwareType,DateUTC
2013-06-07 00:01:00,56.8,56.5,29.68,NNW,337,1.2,2.8,97,0.00,,,0.00,Rainwise IP-100,2013-06-07 04:01:00,
2013-06-07 00:02:00,56.8,56.5,29.68,NNW,337,0.0,2.8,97,0.00,,,0.00,Rainwise IP-100,2013-06-07 04:02:00,
2013-06-07 00:06:00,56.8,56.5,29.68,NNW,337,0.0,1.9,97,0.00,,,0.00,Rainwise IP-100,2013-06-07 04:06:00,
2013-06-07 00:11:00,56.7,56.0,29.67,NNW,337,0.0,0.0,98,0.00,,,0.00,Rainwise IP-100,2013-06-07 04:11:00,
2013-06-07 00:16:00,56.5,56.0,29.67,NNW,337,0.0,0.0,98,0.00,,,0.00,Rainwise IP-100,2013-06-07 04:16:00,
2013-06-07 00:22:00,56.4,56.0,29.67,NNW,337,0.0,0.0,98,0.00,,,0.01,Rainwise IP-100,2013-06-07 04:22:00,
2013-06-07 00:27:00,56.5,56.0,29.67,NNW,337,0.0,0.0,98,0.06,,,0.01,Rainwise IP-100,2013-06-07 04:27:00,
2013-06-07 00:32:00,56.4,56.0,29.67,NNW,337,0.0,0.0,98,0.00,,,0.01,Rainwise IP-100,2013-06-07 04:32:00,
2013-06-07 00:37:00,56.4,56.0,29.67,NNW,337,0.0,0.0,98,0.00,,,0.01,Rainwise IP-100,2013-06-07 04:37:00,
2013-06-07 00:42:00,56.5,56.0,29.67,NNW,337,0.0,0.0,98,0.06,,,0.02,Rainwise IP-100,2013-06-07 04:42:00,
2013-06-07 00:47:00,56.5,56.0,29.67,NNW,337,0.0,0.0,98,0.06,,,0.02,Rainwise IP-100,2013-06-07 04:47:00,
2013-06-07 00:52:00,56.5,56.0,29.67,NNW,337,0.0,0.0,98,0.00,,,0.02,Rainwise IP-100,2013-06-07 04:52:00,
2013-06-07 00:57:00,56.5,56.0,29.67,ESE,112,0.0,0.0,98,0.00,,,0.02,Rainwise IP-100,2013-06-07 04:57:00,
2013-06-07 01:02:00,56.4,56.0,29.67,West,270,0.0,1.6,98,0.06,,,0.03,Rainwise IP-100,2013-06-07 05:02:00,
2013-06-07 01:07:00,56.2,55.0,29.67,SSE,157,0.0,2.8,98,0.06,,,0.03,Rainwise IP-100,2013-06-07 05:07:00,
2013-06-07 01:12:00,56.1,55.0,29.67,SSE,157,0.0,2.3,98,0.00,,,0.03,Rainwise IP-100,2013-06-07 05:12:00,
2013-06-07 01:17:00,55.9,55.0,29.67,SW,225,6.3,6.3,98,0.06,,,0.04,Rainwise IP-100,2013-06-07 05:17:00,
2013-06-07 01:22:00,55.6,55.0,29.66,SSW,202,5.1,7.9,98,0.06,,,0.04,Rainwise IP-100,2013-06-07 05:22:00,
2013-06-07 01:27:00,55.5,55.0,29.66,SSW,202,0.0,8.2,97,0.00,,,0.04,Rainwise IP-100,2013-06-07 05:27:00,
2013-06-07 01:32:00,55.4,54.5,29.65,SSE,157,0.0,2.3,97,0.00,,,0.04,Rainwise IP-100,2013-06-07 05:32:00,
2013-06-07 01:38:00,55.2,54.0,29.66,SSW,202,1.4,5.8,96,0.00,,,0.04,Rainwise IP-100,2013-06-07 05:38:00,
2013-06-07 01:43:00,55.0,54.0,29.65,WSW,247,2.8,4.7,95,0.00,,,0.04,Rainwise IP-100,2013-06-07 05:43:00,
2013-06-07 01:48:00,54.7,53.5,29.65,SW,225,2.3,7.7,95,0.00,,,0.04,Rainwise IP-100,2013-06-07 05:48:00,
2013-06-07 01:53:00,54.4,53.0,29.65,WSW,247,6.5,9.3,94,0.00,,,0.04,Rainwise IP-100,2013-06-07 05:53:00,
2013-06-07 01:58:00,54.2,52.0,29.65,SW,225,1.9,9.1,94,0.00,,,0.04,Rainwise IP-100,2013-06-07 05:58:00,
2013-06-07 02:03:00,54.0,52.0,29.65,WSW,247,1.2,3.0,94,0.06,,,0.05,Rainwise IP-100,2013-06-07 06:03:00,
2013-06-07 02:08:00,53.7,52.0,29.65,SSW,202,2.3,4.0,94,0.06,,,0.05,Rainwise IP-100,2013-06-07 06:08:00,
2013-06-07 02:13:00,53.6,52.0,29.65,WSW,247,0.0,3.0,94,0.00,,,0.05,Rainwise IP-100,2013-06-07 06:13:00,
2013-06-07 02:18:00,53.4,52.0,29.65,WSW,247,0.0,3.5,94,0.00,,,0.05,Rainwise IP-100,2013-06-07 06:18:00,
2013-06-07 02:23:00,53.3,52.0,29.64,WSW,247,1.2,1.6,95,0.00,,,0.05,Rainwise IP-100,2013-06-07 06:23:00,
2013-06-07 02:28:00,53.3,52.0,29.65,WSW,247,0.0,1.6,95,0.00,,,0.05,Rainwise IP-100,2013-06-07 06:28:00,
2013-06-07 02:33:00,53.2,51.0,29.65,WSW,247,0.0,1.6,95,0.00,,,0.05,Rainwise IP-100,2013-06-07 06:33:00,
2013-06-07 02:38:00,53.0,51.0,29.64,WSW,247,0.0,2.1,96,0.00,,,0.05,Rainwise IP-100,2013-06-07 06:38:00,
2013-06-07 02:43:00,52.9,51.0,29.65,WSW,247,0.0,2.6,96,0.00,,,0.05,Rainwise IP-100,2013-06-07 06:43:00,
2013-06-07 02:48:00,52.9,51.0,29.64,WSW,247,0.0,1.4,96,0.00,,,0.05,Rainwise IP-100,2013-06-07 06:48:00,
2013-06-07 02:54:00,52.8,52.0,29.64,WSW,247,0.0,1.2,97,0.00,,,0.05,Rainwise IP-100,2013-06-07 06:54:00,
2013-06-07 02:59:00,52.9,52.0,29.64,WSW,247,0.0,0.0,97,0.00,,,0.05,Rainwise IP-100,2013-06-07 06:59:00,
2013-06-07 03:04:00,53.0,52.0,29.64,WSW,247,0.0,1.9,97,0.06,,,0.06,Rainwise IP-100,2013-06-07 07:04:00,
2013-06-07 03:09:00,52.9,52.0,29.64,WSW,247,0.0,1.2,97,0.06,,,0.06,Rainwise IP-100,2013-06-07 07:09:00,
2013-06-07 03:14:00,53.0,52.0,29.64,WSW,247,0.0,1.4,98,0.00,,,0.06,Rainwise IP-100,2013-06-07 07:14:00,
2013-06-07 03:19:00,53.0,52.0,29.64,WSW,247,0.0,1.2,98,0.00,,,0.06,Rainwise IP-100,2013-06-07 07:19:00,
2013-06-07 03:24:00,53.0,52.0,29.64,WSW,247,0.0,0.0,98,0.00,,,0.06,Rainwise IP-100,2013-06-07 07:24:00,
2013-06-07 03:29:00,53.0,52.0,29.64,WSW,247,1.2,1.2,98,0.06,,,0.07,Rainwise IP-100,2013-06-07 07:29:00,
2013-06-07 03:34:00,53.0,52.0,29.64,WSW,247,0.0,1.4,98,0.06,,,0.07,Rainwise IP-100,2013-06-07 07:34:00,
2013-06-07 03:39:00,53.1,52.0,29.64,WSW,247,0.0,0.0,98,0.00,,,0.07,Rainwise IP-100,2013-06-07 07:39:00,
2013-06-07 03:44:00,53.0,52.0,29.64,WSW,247,0.0,1.2,98,0.00,,,0.07,Rainwise IP-100,2013-06-07 07:44:00,
2013-06-07 03:49:00,52.9,52.0,29.64,WSW,247,0.0,1.6,98,0.00,,,0.07,Rainwise IP-100,2013-06-07 07:49:00,
2013-06-07 03:54:00,52.8,52.0,29.63,WSW,247,0.0,1.4,98,0.00,,,0.07,Rainwise IP-100,2013-06-07 07:54:00,
2013-06-07 03:59:00,52.7,52.0,29.63,WSW,247,0.0,1.2,98,0.00,,,0.07,Rainwise IP-100,2013-06-07 07:59:00,
2013-06-07 04:04:00,52.6,52.0,29.63,WSW,247,0.0,1.4,98,0.00,,,0.07,Rainwise IP-100,2013-06-07 08:04:00,
2013-06-07 04:10:00,52.4,51.0,29.63,WSW,247,0.0,0.0,98,0.00,,,0.07,Rainwise IP-100,2013-06-07 08:10:00,
2013-06-07 04:15:00,52.2,51.0,29.62,WSW,247,1.2,1.4,98,0.00,,,0.07,Rainwise IP-100,2013-06-07 08:15:00,
2013-06-07 04:20:00,52.0,51.0,29.62,WSW,247,0.0,1.4,98,0.06,,,0.08,Rainwise IP-100,2013-06-07 08:20:00,
2013-06-07 04:25:00,51.9,51.0,29.63,WSW,247,1.9,1.9,98,0.06,,,0.08,Rainwise IP-100,2013-06-07 08:25:00,
2013-06-07 04:30:00,51.7,51.0,29.62,WSW,247,0.0,3.3,98,0.00,,,0.08,Rainwise IP-100,2013-06-07 08:30:00,
2013-06-07 04:35:00,51.6,51.0,29.63,WSW,247,0.0,0.0,98,0.00,,,0.08,Rainwise IP-100,2013-06-07 08:35:00,
2013-06-07 04:40:00,51.7,51.0,29.62,WSW,247,0.0,0.0,98,0.00,,,0.08,Rainwise IP-100,2013-06-07 08:40:00,
2013-06-07 04:45:00,51.7,51.0,29.62,WSW,247,0.0,0.0,98,0.00,,,0.08,Rainwise IP-100,2013-06-07 08:45:00,
2013-06-07 04:50:00,51.7,52.0,29.62,WSW,247,0.0,0.0,99,0.00,,,0.08,Rainwise IP-100,2013-06-07 08:50:00,
2013-06-07 04:55:00,51.8,52.0,29.62,WSW,247,0.0,0.0,99,0.00,,,0.08,Rainwise IP-100,2013-06-07 08:55:00,
2013-06-07 05:00:00,51.8,52.0,29.62,WSW,247,0.0,0.0,99,0.00,,,0.08,Rainwise IP-100,2013-06-07 09:00:00,
2013-06-07 05:05:00,51.8,52.0,29.62,WSW,247,0.0,0.0,99,0.00,,,0.08,Rainwise IP-100,2013-06-07 09:05:00,
2013-06-07 05:10:00,51.9,52.0,29.62,WSW,247,0.0,0.0,99,0.00,,,0.08,Rainwise IP-100,2013-06-07 09:10:00,
2013-06-07 05:15:00,51.9,52.0,29.62,WSW,247,0.0,0.0,99,0.00,,,0.08,Rainwise IP-100,2013-06-07 09:15:00,
2013-06-07 05:20:00,51.8,52.0,29.62,WSW,247,0.0,0.0,99,0.00,,,0.08,Rainwise IP-100,2013-06-07 09:20:00,
2013-06-07 05:26:00,51.8,52.0,29.63,SSW,202,0.0,1.6,99,0.00,,,0.08,Rainwise IP-100,2013-06-07 09:26:00,
2013-06-07 05:31:00,51.8,52.0,29.63,WSW,247,1.2,1.9,99,0.00,,,0.08,Rainwise IP-100,2013-06-07 09:31:00,
2013-06-07 05:36:00,51.8,52.0,29.63,WSW,247,0.0,1.4,99,0.00,,,0.08,Rainwise IP-100,2013-06-07 09:36:00,
2013-06-07 05:41:00,51.8,52.0,29.63,WSW,247,0.0,0.0,99,0.00,,,0.08,Rainwise IP-100,2013-06-07 09:41:00,
2013-06-07 05:46:00,51.9,52.0,29.63,West,270,0.0,0.0,99,0.06,,,0.09,Rainwise IP-100,2013-06-07 09:46:00,
2013-06-07 05:51:00,51.9,52.0,29.63,West,270,0.0,1.4,99,0.06,,,0.09,Rainwise IP-100,2013-06-07 09:51:00,
2013-06-07 05:56:00,51.9,52.0,29.63,West,270,0.0,0.0,99,0.00,,,0.09,Rainwise IP-100,2013-06-07 09:56:00,
2013-06-07 06:01:00,52.0,52.0,29.63,West,270,0.0,0.0,99,0.00,,,0.09,Rainwise IP-100,2013-06-07 10:01:00,
2013-06-07 06:06:00,52.0,52.0,29.64,West,270,0.0,0.0,100,0.00,,,0.09,Rainwise IP-100,2013-06-07 10:06:00,
2013-06-07 06:11:00,52.1,52.0,29.64,West,270,0.0,0.0,100,0.00,,,0.09,Rainwise IP-100,2013-06-07 10:11:00,
2013-06-07 06:16:00,52.3,52.0,29.64,West,270,0.0,0.0,100,0.00,,,0.09,Rainwise IP-100,2013-06-07 10:16:00,
2013-06-07 06:21:00,52.3,52.0,29.63,West,270,0.0,0.0,100,0.00,,,0.09,Rainwise IP-100,2013-06-07 10:21:00,
2013-06-07 06:26:00,52.3,52.0,29.64,WSW,247,0.0,4.0,100,0.00,,,0.09,Rainwise IP-100,2013-06-07 10:26:00,
2013-06-07 06:31:00,52.3,52.0,29.64,SSW,202,0.0,1.9,100,0.00,,,0.09,Rainwise IP-100,2013-06-07 10:31:00,
2013-06-07 06:36:00,52.5,53.0,29.64,SSW,202,0.0,0.0,100,0.06,,,0.10,Rainwise IP-100,2013-06-07 10:36:00,
2013-06-07 06:42:00,52.6,53.0,29.64,SSW,202,0.0,0.0,100,0.06,,,0.10,Rainwise IP-100,2013-06-07 10:42:00,
2013-06-07 06:47:00,52.6,53.0,29.64,SSW,202,0.0,0.0,100,0.00,,,0.10,Rainwise IP-100,2013-06-07 10:47:00,
2013-06-07 06:52:00,52.7,53.0,29.64,SSW,202,0.0,0.0,100,0.00,,,0.10,Rainwise IP-100,2013-06-07 10:52:00,
2013-06-07 06:57:00,52.7,53.0,29.64,SSW,202,0.0,0.0,100,0.00,,,0.10,Rainwise IP-100,2013-06-07 10:57:00,
2013-06-07 07:02:00,52.7,53.0,29.64,SSW,202,0.0,0.0,100,0.00,,,0.10,Rainwise IP-100,2013-06-07 11:02:00,
2013-06-07 07:07:00,52.7,53.0,29.64,SSW,202,0.0,0.0,100,0.00,,,0.10,Rainwise IP-100,2013-06-07 11:07:00,
2013-06-07 07:12:00,52.8,53.0,29.65,SSW,202,0.0,0.0,100,0.00,,,0.10,Rainwise IP-100,2013-06-07 11:12:00,
2013-06-07 07:17:00,52.9,53.0,29.65,SSW,202,0.0,0.0,100,0.00,,,0.10,Rainwise IP-100,2013-06-07 11:17:00,
2013-06-07 07:22:00,53.0,53.0,29.65,SSW,202,0.0,0.0,100,0.00,,,0.10,Rainwise IP-100,2013-06-07 11:22:00,
2013-06-07 07:27:00,53.0,53.0,29.65,SSW,202,0.0,0.0,100,0.00,,,0.10,Rainwise IP-100,2013-06-07 11:27:00,
2013-06-07 07:32:00,53.0,53.0,29.65,SSW,202,0.0,0.0,100,0.00,,,0.10,Rainwise IP-100,2013-06-07 11:32:00,
2013-06-07 07:37:00,53.2,53.0,29.65,SSW,202,0.0,0.0,100,0.00,,,0.10,Rainwise IP-100,2013-06-07 11:37:00,
2013-06-07 07:42:00,53.3,53.5,29.65,NNW,337,0.0,3.3,100,0.00,,,0.10,Rainwise IP-100,2013-06-07 11:42:00,
2013-06-07 07:47:00,53.3,53.5,29.65,East,90,0.0,4.9,100,0.00,,,0.10,Rainwise IP-100,2013-06-07 11:47:00,
2013-06-07 07:52:00,53.4,53.5,29.65,ESE,112,3.3,8.4,99,0.00,,,0.10,Rainwise IP-100,2013-06-07 11:52:00,
2013-06-07 07:58:00,53.6,53.5,29.65,SE,135,4.9,7.5,99,0.00,,,0.10,Rainwise IP-100,2013-06-07 11:58:00,
2013-06-07 08:03:00,53.6,53.0,29.65,SSE,157,3.7,6.8,98,0.00,,,0.10,Rainwise IP-100,2013-06-07 12:03:00,
2013-06-07 08:08:00,53.6,53.0,29.65,SSW,202,7.7,9.8,98,0.06,,,0.11,Rainwise IP-100,2013-06-07 12:08:00,
2013-06-07 08:13:00,53.7,53.0,29.65,WSW,247,0.0,7.9,97,0.06,,,0.11,Rainwise IP-100,2013-06-07 12:13:00,
2013-06-07 08:18:00,53.6,53.0,29.66,WSW,247,5.1,8.4,97,0.00,,,0.11,Rainwise IP-100,2013-06-07 12:18:00,
2013-06-07 08:23:00,53.4,52.0,29.66,SSW,202,3.7,12.4,96,0.00,,,0.11,Rainwise IP-100,2013-06-07 12:23:00,
2013-06-07 08:28:00,53.1,51.0,29.66,SW,225,4.7,13.3,95,0.06,,,0.12,Rainwise IP-100,2013-06-07 12:28:00,
2013-06-07 08:33:00,52.9,50.5,29.66,SE,135,1.2,11.7,93,0.06,,,0.12,Rainwise IP-100,2013-06-07 12:33:00,
2013-06-07 08:38:00,52.7,50.5,29.66,WNW,292,1.6,5.8,93,0.12,,,0.14,Rainwise IP-100,2013-06-07 12:38:00,
2013-06-07 08:43:00,52.4,50.0,29.66,WSW,247,0.0,5.1,93,0.12,,,0.14,Rainwise IP-100,2013-06-07 12:43:00,
2013-06-07 08:48:00,52.1,50.0,29.65,SSW,202,0.0,2.8,93,0.00,,,0.14,Rainwise IP-100,2013-06-07 12:48:00,
2013-06-07 08:53:00,51.9,50.5,29.66,SSW,202,0.0,0.0,94,0.00,,,0.14,Rainwise IP-100,2013-06-07 12:53:00,
2013-06-07 08:58:00,51.9,50.5,29.66,SSW,202,0.0,0.0,94,0.00,,,0.14,Rainwise IP-100,2013-06-07 12:58:00,
2013-06-07 09:03:00,51.8,50.5,29.66,SSW,202,0.0,0.0,95,0.00,,,0.14,Rainwise IP-100,2013-06-07 13:03:00,
2013-06-07 09:09:00,51.8,50.5,29.66,SSW,202,0.0,0.0,95,0.00,,,0.14,Rainwise IP-100,2013-06-07 13:09:00,
2013-06-07 09:14:00,51.8,50.5,29.66,West,270,0.0,1.4,96,0.00,,,0.14,Rainwise IP-100,2013-06-07 13:14:00,
2013-06-07 09:19:00,51.8,50.5,29.66,West,270,0.0,1.6,96,0.06,,,0.15,Rainwise IP-100,2013-06-07 13:19:00,
2013-06-07 09:24:00,51.9,50.5,29.66,West,270,0.0,0.0,96,0.06,,,0.15,Rainwise IP-100,2013-06-07 13:24:00,
2013-06-07 09:29:00,52.2,50.5,29.66,West,270,0.0,0.0,96,0.06,,,0.16,Rainwise IP-100,2013-06-07 13:29:00,
2013-06-07 09:34:00,52.4,50.5,29.66,West,270,0.0,0.0,96,0.06,,,0.16,Rainwise IP-100,2013-06-07 13:34:00,
2013-06-07 09:39:00,52.4,50.5,29.66,North,360,3.3,3.3,96,0.00,,,0.16,Rainwise IP-100,2013-06-07 13:39:00,
2013-06-07 09:44:00,52.2,50.5,29.66,NNE,22,0.0,4.2,96,0.00,,,0.16,Rainwise IP-100,2013-06-07 13:44:00,
2013-06-07 09:49:00,52.3,51.0,29.66,SW,225,0.0,1.9,97,0.00,,,0.16,Rainwise IP-100,2013-06-07 13:49:00,
2013-06-07 09:54:00,52.5,52.0,29.66,SW,225,0.0,1.6,97,0.00,,,0.16,Rainwise IP-100,2013-06-07 13:54:00,
2013-06-07 09:59:00,52.8,52.0,29.67,ESE,112,0.0,2.1,97,0.06,,,0.17,Rainwise IP-100,2013-06-07 13:59:00,
2013-06-07 10:04:00,52.9,51.0,29.67,NNE,22,0.0,5.8,96,0.06,,,0.17,Rainwise IP-100,2013-06-07 14:04:00,
2013-06-07 10:09:00,53.0,51.0,29.67,SSW,202,0.0,3.0,96,0.00,,,0.17,Rainwise IP-100,2013-06-07 14:09:00,
2013-06-07 10:14:00,53.0,51.0,29.66,SSE,157,0.0,5.1,96,0.00,,,0.18,Rainwise IP-100,2013-06-07 14:14:00,
2013-06-07 10:19:00,52.8,51.0,29.67,ENE,67,2.1,12.1,96,0.06,,,0.18,Rainwise IP-100,2013-06-07 14:19:00,
2013-06-07 10:25:00,52.5,51.0,29.67,ENE,67,9.3,13.1,95,0.06,,,0.18,Rainwise IP-100,2013-06-07 14:25:00,
2013-06-07 10:30:00,52.1,50.0,29.67,ENE,67,8.6,10.0,93,0.00,,,0.18,Rainwise IP-100,2013-06-07 14:30:00,
2013-06-07 10:35:00,51.9,50.0,29.66,NNE,22,4.0,11.2,93,0.00,,,0.18,Rainwise IP-100,2013-06-07 14:35:00,
2013-06-07 10:40:00,51.9,50.0,29.66,NE,45,3.5,5.4,93,0.00,,,0.18,Rainwise IP-100,2013-06-07 14:40:00,
2013-06-07 10:45:00,51.9,50.0,29.66,NE,45,4.4,10.0,93,0.00,,,0.18,Rainwise IP-100,2013-06-07 14:45:00,
2013-06-07 10:50:00,52.0,50.5,29.65,SSE,157,2.3,7.0,94,0.00,,,0.18,Rainwise IP-100,2013-06-07 14:50:00,
2013-06-07 10:55:00,52.0,50.5,29.66,SSE,157,3.3,4.2,94,0.00,,,0.18,Rainwise IP-100,2013-06-07 14:55:00,
2013-06-07 11:00:00,51.9,50.5,29.66,NE,45,2.8,4.4,94,0.00,,,0.18,Rainwise IP-100,2013-06-07 15:00:00,
2013-06-07 11:05:00,51.7,50.5,29.66,NE,45,2.8,9.8,94,0.00,,,0.18,Rainwise IP-100,2013-06-07 15:05:00,
2013-06-07 11:10:00,51.5,50.5,29.66,SSE,157,2.6,8.2,94,0.00,,,0.18,Rainwise IP-100,2013-06-07 15:10:00,
2013-06-07 11:15:00,51.4,50.0,29.66,SSW,202,14.0,14.0,94,0.06,,,0.19,Rainwise IP-100,2013-06-07 15:15:00,
2013-06-07 11:20:00,51.2,50.0,29.67,SSW,202,6.3,14.0,94,0.06,,,0.19,Rainwise IP-100,2013-06-07 15:20:00,
2013-06-07 11:25:00,50.9,50.0,29.66,SSE,157,0.0,9.1,94,0.00,,,0.19,Rainwise IP-100,2013-06-07 15:25:00,
2013-06-07 11:30:00,50.7,49.0,29.66,SW,225,0.0,6.3,94,0.00,,,0.19,Rainwise IP-100,2013-06-07 15:30:00,
2013-06-07 11:35:00,50.7,49.0,29.67,SW,225,0.0,3.0,94,0.00,,,0.20,Rainwise IP-100,2013-06-07 15:35:00,
2013-06-07 11:41:00,50.7,49.0,29.66,SSW,202,0.0,3.0,95,0.06,,,0.20,Rainwise IP-100,2013-06-07 15:41:00,
2013-06-07 11:46:00,50.7,49.0,29.67,SSW,202,1.4,3.0,95,0.06,,,0.20,Rainwise IP-100,2013-06-07 15:46:00,
2013-06-07 11:51:00,50.7,50.0,29.66,WSW,247,5.4,8.9,96,0.06,,,0.21,Rainwise IP-100,2013-06-07 15:51:00,
2013-06-07 11:56:00,50.7,49.0,29.66,WSW,247,1.9,5.4,95,0.06,,,0.21,Rainwise IP-100,2013-06-07 15:56:00,
2013-06-07 12:01:00,50.7,49.0,29.66,South,180,0.0,7.5,95,0.00,,,0.21,Rainwise IP-100,2013-06-07 16:01:00,
2013-06-07 12:06:00,50.7,49.0,29.66,SSE,157,2.6,5.8,95,0.06,,,0.22,Rainwise IP-100,2013-06-07 16:06:00,
2013-06-07 12:11:00,50.7,50.0,29.66,SSE,157,1.9,4.7,96,0.06,,,0.22,Rainwise IP-100,2013-06-07 16:11:00,
2013-06-07 12:16:00,50.7,50.0,29.66,South,180,2.3,4.2,96,0.06,,,0.23,Rainwise IP-100,2013-06-07 16:16:00,
2013-06-07 12:21:00,50.7,50.0,29.66,SE,135,0.0,3.7,96,0.06,,,0.23,Rainwise IP-100,2013-06-07 16:21:00,
2013-06-07 12:26:00,50.9,50.0,29.65,SSW,202,1.6,3.7,96,0.06,,,0.24,Rainwise IP-100,2013-06-07 16:26:00,
2013-06-07 12:31:00,50.8,50.5,29.65,SW,225,4.2,6.1,97,0.12,,,0.26,Rainwise IP-100,2013-06-07 16:31:00,
2013-06-07 12:36:00,50.6,50.0,29.65,SSW,202,3.0,4.4,96,0.12,,,0.26,Rainwise IP-100,2013-06-07 16:36:00,
2013-06-07 12:41:00,50.6,50.0,29.65,WSW,247,1.4,3.7,96,0.12,,,0.27,Rainwise IP-100,2013-06-07 16:41:00,
2013-06-07 12:46:00,50.8,50.0,29.65,SSW,202,0.0,3.0,96,0.06,,,0.27,Rainwise IP-100,2013-06-07 16:46:00,
2013-06-07 12:51:00,51.0,50.5,29.65,SSW,202,2.1,3.5,97,0.00,,,0.27,Rainwise IP-100,2013-06-07 16:51:00,
2013-06-07 12:57:00,51.1,50.5,29.65,WSW,247,1.4,2.3,97,0.06,,,0.28,Rainwise IP-100,2013-06-07 16:57:00,
2013-06-07 13:02:00,51.1,50.5,29.64,WSW,247,0.0,2.6,97,0.06,,,0.28,Rainwise IP-100,2013-06-07 17:02:00,
2013-06-07 13:07:00,51.2,50.5,29.64,ENE,67,1.4,2.8,97,0.00,,,0.28,Rainwise IP-100,2013-06-07 17:07:00,
2013-06-07 13:12:00,51.3,50.5,29.64,SSW,202,0.0,1.4,97,0.06,,,0.29,Rainwise IP-100,2013-06-07 17:12:00,
2013-06-07 13:17:00,51.3,50.5,29.64,SSW,202,1.4,2.3,97,0.12,,,0.30,Rainwise IP-100,2013-06-07 17:17:00,
2013-06-07 13:22:00,51.4,50.5,29.63,SW,225,1.2,1.6,97,0.12,,,0.31,Rainwise IP-100,2013-06-07 17:22:00,
2013-06-07 13:27:00,51.5,51.0,29.64,SW,225,3.0,4.4,97,0.12,,,0.32,Rainwise IP-100,2013-06-07 17:27:00,
2013-06-07 13:32:00,51.4,50.5,29.64,SSW,202,4.0,4.7,97,0.12,,,0.33,Rainwise IP-100,2013-06-07 17:32:00,
2013-06-07 13:37:00,51.3,50.5,29.64,WSW,247,2.8,4.9,97,0.06,,,0.33,Rainwise IP-100,2013-06-07 17:37:00,
2013-06-07 13:42:00,51.2,50.5,29.63,SSW,202,4.0,5.1,97,0.06,,,0.34,Rainwise IP-100,2013-06-07 17:42:00,
2013-06-07 13:47:00,51.3,50.5,29.63,SSW,202,1.2,4.7,98,0.06,,,0.34,Rainwise IP-100,2013-06-07 17:47:00,
2013-06-07 13:52:00,51.4,50.5,29.63,WSW,247,2.3,3.5,98,0.06,,,0.35,Rainwise IP-100,2013-06-07 17:52:00,
2013-06-07 13:57:00,51.4,50.5,29.63,WSW,247,4.0,5.4,98,0.06,,,0.35,Rainwise IP-100,2013-06-07 17:57:00,
2013-06-07 14:02:00,51.4,50.5,29.63,SW,225,0.0,4.2,98,0.06,,,0.36,Rainwise IP-100,2013-06-07 18:02:00,
2013-06-07 14:07:00,51.5,51.0,29.63,SSW,202,3.5,3.5,98,0.06,,,0.36,Rainwise IP-100,2013-06-07 18:07:00,
2013-06-07 14:13:00,51.7,51.0,29.63,SSW,202,2.8,4.4,98,0.06,,,0.37,Rainwise IP-100,2013-06-07 18:13:00,
2013-06-07 14:18:00,51.8,51.0,29.63,WSW,247,0.0,9.3,98,0.12,,,0.38,Rainwise IP-100,2013-06-07 18:18:00,
2013-06-07 14:23:00,51.8,51.0,29.63,SW,225,3.5,8.4,98,0.06,,,0.38,Rainwise IP-100,2013-06-07 18:23:00,
2013-06-07 14:28:00,51.8,51.0,29.62,SW,225,4.7,5.6,98,0.06,,,0.39,Rainwise IP-100,2013-06-07 18:28:00,
2013-06-07 14:33:00,51.8,51.0,29.63,NNW,337,1.6,6.3,97,0.06,,,0.39,Rainwise IP-100,2013-06-07 18:33:00,
2013-06-07 14:38:00,51.8,51.0,29.63,WSW,247,3.3,7.9,97,0.00,,,0.39,Rainwise IP-100,2013-06-07 18:38:00,
2013-06-07 14:43:00,51.7,51.0,29.63,SSE,157,3.5,6.1,97,0.00,,,0.39,Rainwise IP-100,2013-06-07 18:43:00,
2013-06-07 14:48:00,51.7,51.0,29.63,SSW,202,6.1,6.1,97,0.00,,,0.39,Rainwise IP-100,2013-06-07 18:48:00,
2013-06-07 14:53:00,51.7,51.0,29.62,SSW,202,5.8,6.5,97,0.00,,,0.39,Rainwise IP-100,2013-06-07 18:53:00,
2013-06-07 14:58:00,51.7,51.0,29.62,WSW,247,3.3,6.5,97,0.06,,,0.40,Rainwise IP-100,2013-06-07 18:58:00,
2013-06-07 15:03:00,51.8,51.0,29.62,SSW,202,3.5,4.0,97,0.06,,,0.40,Rainwise IP-100,2013-06-07 19:03:00,
2013-06-07 15:08:00,51.8,51.0,29.62,SSW,202,3.7,6.3,97,0.00,,,0.40,Rainwise IP-100,2013-06-07 19:08:00,
2013-06-07 15:13:00,51.8,51.0,29.62,SSW,202,3.3,4.0,97,0.00,,,0.40,Rainwise IP-100,2013-06-07 19:13:00,
2013-06-07 15:17:00,51.8,51.0,29.62,SW,225,1.4,4.7,97,0.00,,,0.40,Rainwise IP-100,2013-06-07 19:17:00,
2013-06-07 15:22:00,51.8,51.0,29.62,SW,225,2.3,3.7,97,0.00,,,0.40,Rainwise IP-100,2013-06-07 19:22:00,
2013-06-07 15:27:00,51.9,51.0,29.62,SW,225,2.3,4.2,97,0.00,,,0.40,Rainwise IP-100,2013-06-07 19:27:00,
2013-06-07 15:32:00,51.9,51.0,29.62,WSW,247,0.0,3.0,97,0.00,,,0.40,Rainwise IP-100,2013-06-07 19:32:00,
2013-06-07 15:37:00,52.0,51.0,29.61,WSW,247,3.7,5.1,97,0.00,,,0.40,Rainwise IP-100,2013-06-07 19:37:00,
2013-06-07 15:42:00,52.3,51.0,29.61,SSW,202,0.0,5.1,97,0.00,,,0.40,Rainwise IP-100,2013-06-07 19:42:00,
2013-06-07 15:47:00,52.4,51.0,29.61,NNE,22,4.2,9.3,97,0.00,,,0.40,Rainwise IP-100,2013-06-07 19:47:00,
2013-06-07 15:52:00,52.5,51.0,29.61,NNE,22,1.6,7.2,96,0.00,,,0.40,Rainwise IP-100,2013-06-07 19:52:00,
2013-06-07 15:57:00,52.7,51.0,29.61,SE,135,0.0,7.7,95,0.00,,,0.40,Rainwise IP-100,2013-06-07 19:57:00,
2013-06-07 16:03:00,52.7,51.0,29.61,ENE,67,4.7,8.6,95,0.00,,,0.40,Rainwise IP-100,2013-06-07 20:03:00,
2013-06-07 16:08:00,52.7,51.0,29.61,ESE,112,4.9,9.3,94,0.00,,,0.40,Rainwise IP-100,2013-06-07 20:08:00,
2013-06-07 16:13:00,52.7,50.5,29.61,ENE,67,0.0,8.2,93,0.00,,,0.40,Rainwise IP-100,2013-06-07 20:13:00,
2013-06-07 16:18:00,52.6,50.5,29.60,ENE,67,0.0,4.9,93,0.00,,,0.40,Rainwise IP-100,2013-06-07 20:18:00,
2013-06-07 16:23:00,52.6,51.0,29.60,WSW,247,2.8,4.0,94,0.00,,,0.40,Rainwise IP-100,2013-06-07 20:23:00,
2013-06-07 16:28:00,52.6,51.0,29.60,SSE,157,2.3,3.5,95,0.00,,,0.40,Rainwise IP-100,2013-06-07 20:28:00,
2013-06-07 16:33:00,52.5,51.0,29.59,ESE,112,3.5,13.1,95,0.00,,,0.40,Rainwise IP-100,2013-06-07 20:33:00,
2013-06-07 16:38:00,52.4,50.5,29.60,SSE,157,3.0,12.6,94,0.00,,,0.40,Rainwise IP-100,2013-06-07 20:38:00,
2013-06-07 16:43:00,52.5,51.0,29.59,WSW,247,4.0,6.5,94,0.00,,,0.40,Rainwise IP-100,2013-06-07 20:43:00,
2013-06-07 16:48:00,52.5,51.0,29.58,WSW,247,3.0,6.3,94,0.00,,,0.40,Rainwise IP-100,2013-06-07 20:48:00,
2013-06-07 16:53:00,52.4,50.5,29.58,SSW,202,7.0,7.5,94,0.00,,,0.40,Rainwise IP-100,2013-06-07 20:53:00,
2013-06-07 16:58:00,52.4,50.5,29.58,SSW,202,4.4,8.4,94,0.00,,,0.40,Rainwise IP-100,2013-06-07 20:58:00,
2013-06-07 17:03:00,52.5,51.0,29.58,WSW,247,2.8,4.9,94,0.00,,,0.40,Rainwise IP-100,2013-06-07 21:03:00,
2013-06-07 17:08:00,52.5,51.0,29.58,WSW,247,2.1,3.7,94,0.00,,,0.40,Rainwise IP-100,2013-06-07 21:08:00,
2013-06-07 17:13:00,52.5,51.0,29.58,SSW,202,3.7,5.4,94,0.00,,,0.40,Rainwise IP-100,2013-06-07 21:13:00,
2013-06-07 17:19:00,52.5,51.0,29.57,SW,225,1.6,5.1,95,0.00,,,0.40,Rainwise IP-100,2013-06-07 21:19:00,
2013-06-07 17:24:00,52.5,51.0,29.57,WSW,247,4.0,4.0,95,0.00,,,0.40,Rainwise IP-100,2013-06-07 21:24:00,
2013-06-07 17:29:00,52.5,51.0,29.57,WSW,247,3.0,4.4,94,0.00,,,0.40,Rainwise IP-100,2013-06-07 21:29:00,
2013-06-07 17:34:00,52.5,51.0,29.57,WSW,247,3.5,4.9,94,0.00,,,0.40,Rainwise IP-100,2013-06-07 21:34:00,
2013-06-07 17:39:00,52.6,51.0,29.57,WSW,247,0.0,4.0,94,0.00,,,0.40,Rainwise IP-100,2013-06-07 21:39:00,
2013-06-07 17:44:00,52.7,51.0,29.57,WSW,247,0.0,2.1,94,0.00,,,0.40,Rainwise IP-100,2013-06-07 21:44:00,
2013-06-07 17:49:00,52.6,51.0,29.57,West,270,0.0,2.6,95,0.00,,,0.40,Rainwise IP-100,2013-06-07 21:49:00,
2013-06-07 17:54:00,52.7,51.0,29.56,WSW,247,1.2,1.2,95,0.00,,,0.40,Rainwise IP-100,2013-06-07 21:54:00,
2013-06-07 17:59:00,52.7,51.0,29.57,WSW,247,0.0,2.3,95,0.00,,,0.40,Rainwise IP-100,2013-06-07 21:59:00,
2013-06-07 18:04:00,52.7,51.0,29.56,NNW,337,1.6,3.7,95,0.00,,,0.40,Rainwise IP-100,2013-06-07 22:04:00,
2013-06-07 18:09:00,52.7,51.0,29.56,WSW,247,0.0,2.6,96,0.00,,,0.40,Rainwise IP-100,2013-06-07 22:09:00,
2013-06-07 18:14:00,52.7,51.0,29.57,West,270,2.1,2.3,96,0.00,,,0.40,Rainwise IP-100,2013-06-07 22:14:00,
2013-06-07 18:19:00,52.6,51.0,29.57,WSW,247,1.9,2.8,96,0.00,,,0.40,Rainwise IP-100,2013-06-07 22:19:00,
2013-06-07 18:24:00,52.5,51.0,29.57,WNW,292,2.3,5.6,96,0.00,,,0.40,Rainwise IP-100,2013-06-07 22:24:00,
2013-06-07 18:29:00,52.5,51.0,29.57,NNW,337,1.6,2.8,96,0.00,,,0.40,Rainwise IP-100,2013-06-07 22:29:00,
2013-06-07 18:35:00,52.5,51.0,29.57,WNW,292,2.3,4.4,96,0.00,,,0.40,Rainwise IP-100,2013-06-07 22:35:00,
2013-06-07 18:40:00,52.5,51.0,29.57,NNE,22,3.3,6.1,96,0.00,,,0.40,Rainwise IP-100,2013-06-07 22:40:00,
2013-06-07 18:45:00,52.4,50.5,29.57,NNW,337,2.6,6.1,96,0.00,,,0.40,Rainwise IP-100,2013-06-07 22:45:00,
2013-06-07 18:50:00,52.4,50.5,29.56,NNW,337,2.3,6.3,96,0.00,,,0.40,Rainwise IP-100,2013-06-07 22:50:00,
2013-06-07 18:55:00,52.3,50.5,29.56,North,360,2.6,5.6,96,0.00,,,0.40,Rainwise IP-100,2013-06-07 22:55:00,
2013-06-07 19:00:00,52.2,50.5,29.56,North,360,2.6,4.2,96,0.06,,,0.41,Rainwise IP-100,2013-06-07 23:00:00,
2013-06-07 19:05:00,52.1,50.5,29.57,NW,315,3.0,4.0,96,0.06,,,0.41,Rainwise IP-100,2013-06-07 23:05:00,
2013-06-07 19:10:00,51.9,50.5,29.57,NNW,337,2.8,4.2,96,0.06,,,0.42,Rainwise IP-100,2013-06-07 23:10:00,
2013-06-07 19:15:00,51.8,51.0,29.56,North,360,2.6,4.0,97,0.06,,,0.42,Rainwise IP-100,2013-06-07 23:15:00,
2013-06-07 19:20:00,51.8,51.0,29.56,NNW,337,2.8,4.0,97,0.06,,,0.43,Rainwise IP-100,2013-06-07 23:20:00,
2013-06-07 19:25:00,51.8,51.0,29.56,NNW,337,4.0,5.4,97,0.06,,,0.43,Rainwise IP-100,2013-06-07 23:25:00,
2013-06-07 19:30:00,51.8,51.0,29.56,NNW,337,1.9,4.9,98,0.06,,,0.44,Rainwise IP-100,2013-06-07 23:30:00,
2013-06-07 19:35:00,51.7,51.0,29.55,NNW,337,2.3,3.0,98,0.12,,,0.45,Rainwise IP-100,2013-06-07 23:35:00,
2013-06-07 19:40:00,51.6,51.0,29.55,NNW,337,2.3,3.5,98,0.06,,,0.45,Rainwise IP-100,2013-06-07 23:40:00,
2013-06-07 19:45:00,51.6,51.0,29.55,NNW,337,4.4,4.4,98,0.06,,,0.46,Rainwise IP-100,2013-06-07 23:45:00,
2013-06-07 19:51:00,51.6,51.0,29.55,NNW,337,2.8,4.7,98,0.06,,,0.46,Rainwise IP-100,2013-06-07 23:51:00,
2013-06-07 19:56:00,51.6,51.0,29.55,NNW,337,4.7,4.7,98,0.00,,,0.47,Rainwise IP-100,2013-06-07 23:56:00,
2013-06-07 20:01:00,51.5,52.0,29.54,NNW,337,4.2,5.4,99,0.06,,,0.47,Rainwise IP-100,2013-06-08 00:01:00,
2013-06-07 20:06:00,51.5,52.0,29.54,NNW,337,2.6,4.4,99,0.06,,,0.48,Rainwise IP-100,2013-06-08 00:06:00,
2013-06-07 20:11:00,51.5,52.0,29.54,NW,315,2.8,4.0,99,0.06,,,0.48,Rainwise IP-100,2013-06-08 00:11:00,
2013-06-07 20:16:00,51.5,52.0,29.54,NW,315,0.0,3.3,99,0.06,,,0.49,Rainwise IP-100,2013-06-08 00:16:00,
2013-06-07 20:21:00,51.5,52.0,29.54,NW,315,0.0,0.0,99,0.06,,,0.49,Rainwise IP-100,2013-06-08 00:21:00,
2013-06-07 20:26:00,51.6,52.0,29.54,NNE,22,3.0,3.0,99,0.06,,,0.50,Rainwise IP-100,2013-06-08 00:26:00,
2013-06-07 20:31:00,51.6,52.0,29.53,NNW,337,3.3,3.7,99,0.06,,,0.50,Rainwise IP-100,2013-06-08 00:31:00,
2013-06-07 20:36:00,51.6,52.0,29.53,NNW,337,1.2,3.3,99,0.06,,,0.51,Rainwise IP-100,2013-06-08 00:36:00,
2013-06-07 20:41:00,51.5,52.0,29.53,NNW,337,1.6,4.2,99,0.12,,,0.52,Rainwise IP-100,2013-06-08 00:41:00,
2013-06-07 20:46:00,51.6,52.0,29.52,NNW,337,4.0,4.7,99,0.06,,,0.52,Rainwise IP-100,2013-06-08 00:46:00,
2013-06-07 20:51:00,51.6,52.0,29.52,NW,315,2.8,4.2,99,0.00,,,0.52,Rainwise IP-100,2013-06-08 00:51:00,
2013-06-07 20:56:00,51.5,52.0,29.52,NNW,337,2.6,4.2,99,0.06,,,0.53,Rainwise IP-100,2013-06-08 00:56:00,
2013-06-07 21:01:00,51.5,52.0,29.51,NNE,22,2.3,3.7,99,0.12,,,0.54,Rainwise IP-100,2013-06-08 01:01:00,
2013-06-07 21:07:00,51.5,52.0,29.51,North,360,3.7,5.6,99,0.06,,,0.55,Rainwise IP-100,2013-06-08 01:07:00,
2013-06-07 21:12:00,51.5,52.0,29.51,NNW,337,1.6,6.8,100,0.06,,,0.55,Rainwise IP-100,2013-06-08 01:12:00,
2013-06-07 21:17:00,51.5,52.0,29.51,NNW,337,3.3,6.5,100,0.12,,,0.57,Rainwise IP-100,2013-06-08 01:17:00,
2013-06-07 21:22:00,51.4,51.0,29.51,NNW,337,1.6,4.9,100,0.12,,,0.57,Rainwise IP-100,2013-06-08 01:22:00,
2013-06-07 21:27:00,51.4,51.0,29.51,WNW,292,2.1,7.0,100,0.06,,,0.58,Rainwise IP-100,2013-06-08 01:27:00,
2013-06-07 21:32:00,51.4,51.0,29.51,NNW,337,2.6,5.1,100,0.12,,,0.59,Rainwise IP-100,2013-06-08 01:32:00,
2013-06-07 21:37:00,51.4,51.0,29.51,NNW,337,3.0,5.6,100,0.06,,,0.59,Rainwise IP-100,2013-06-08 01:37:00,
2013-06-07 21:42:00,51.4,51.0,29.51,NNW,337,4.9,5.1,100,0.06,,,0.60,Rainwise IP-100,2013-06-08 01:42:00,
2013-06-07 21:47:00,51.4,51.0,29.51,NNW,337,6.1,6.1,100,0.06,,,0.60,Rainwise IP-100,2013-06-08 01:47:00,
2013-06-07 21:52:00,51.4,51.0,29.52,NNW,337,3.7,6.3,100,0.00,,,0.60,Rainwise IP-100,2013-06-08 01:52:00,
2013-06-07 21:57:00,51.4,51.0,29.52,NW,315,2.8,5.4,100,0.06,,,0.61,Rainwise IP-100,2013-06-08 01:57:00,
2013-06-07 22:02:00,51.5,52.0,29.52,WNW,292,1.4,4.9,100,0.06,,,0.61,Rainwise IP-100,2013-06-08 02:02:00,
2013-06-07 22:07:00,51.6,52.0,29.52,NNW,337,2.1,4.2,100,0.06,,,0.62,Rainwise IP-100,2013-06-08 02:07:00,
2013-06-07 22:12:00,51.6,52.0,29.52,NNW,337,1.2,4.0,99,0.06,,,0.62,Rainwise IP-100,2013-06-08 02:12:00,
2013-06-07 22:17:00,51.7,52.0,29.52,WNW,292,0.0,4.0,99,0.06,,,0.63,Rainwise IP-100,2013-06-08 02:17:00,
2013-06-07 22:23:00,51.6,52.0,29.51,WNW,292,0.0,1.9,100,0.12,,,0.64,Rainwise IP-100,2013-06-08 02:23:00,
2013-06-07 22:28:00,51.6,52.0,29.51,North,360,4.2,4.2,100,0.12,,,0.65,Rainwise IP-100,2013-06-08 02:28:00,
2013-06-07 22:33:00,51.6,52.0,29.51,NNW,337,2.8,4.9,100,0.12,,,0.66,Rainwise IP-100,2013-06-08 02:33:00,
2013-06-07 22:38:00,51.6,52.0,29.51,NNW,337,0.0,3.5,100,0.06,,,0.66,Rainwise IP-100,2013-06-08 02:38:00,
2013-06-07 22:43:00,51.5,52.0,29.51,WNW,292,0.0,2.8,100,0.06,,,0.67,Rainwise IP-100,2013-06-08 02:43:00,
2013-06-07 22:48:00,51.5,52.0,29.51,WNW,292,0.0,0.0,100,0.06,,,0.67,Rainwise IP-100,2013-06-08 02:48:00,
2013-06-07 22:53:00,51.5,52.0,29.51,WNW,292,0.0,0.0,100,0.06,,,0.68,Rainwise IP-100,2013-06-08 02:53:00,
2013-06-07 22:58:00,51.5,52.0,29.50,WNW,292,1.2,0.0,100,0.12,,,0.69,Rainwise IP-100,2013-06-08 02:58:00,
2013-06-07 23:03:00,51.5,52.0,29.50,NNW,337,2.3,3.7,100,0.12,,,0.70,Rainwise IP-100,2013-06-08 03:03:00,
2013-06-07 23:08:00,51.4,51.0,29.50,NNW,337,0.0,4.0,100,0.06,,,0.71,Rainwise IP-100,2013-06-08 03:08:00,
2013-06-07 23:13:00,51.4,51.0,29.50,NNW,337,0.0,0.0,100,0.06,,,0.71,Rainwise IP-100,2013-06-08 03:13:00,
2013-06-07 23:18:00,51.4,51.0,29.50,NNW,337,1.2,1.4,100,0.12,,,0.72,Rainwise IP-100,2013-06-08 03:18:00,
2013-06-07 23:23:00,51.4,51.0,29.49,NW,315,0.0,2.3,100,0.06,,,0.72,Rainwise IP-100,2013-06-08 03:23:00,
2013-06-07 23:28:00,51.4,51.0,29.49,NW,315,0.0,2.3,100,0.06,,,0.73,Rainwise IP-100,2013-06-08 03:28:00,
2013-06-07 23:33:00,51.4,51.0,29.49,NW,315,0.0,2.6,100,0.12,,,0.74,Rainwise IP-100,2013-06-08 03:33:00,
2013-06-07 23:39:00,51.4,51.0,29.49,NW,315,3.3,3.3,100,0.12,,,0.75,Rainwise IP-100,2013-06-08 03:39:00,
2013-06-07 23:44:00,51.4,51.0,29.48,NNW,337,0.0,3.3,100,0.06,,,0.75,Rainwise IP-100,2013-06-08 03:44:00,
2013-06-07 23:49:00,51.4,51.0,29.48,WNW,292,0.0,2.3,100,0.06,,,0.76,Rainwise IP-100,2013-06-08 03:49:00,
2013-06-07 23:54:00,51.4,51.0,29.48,NNW,337,2.3,3.5,100,0.06,,,0.76,Rainwise IP-100,2013-06-08 03:54:00,
2013-06-07 23:59:00,51.4,51.0,29.47,NNE,22,0.0,4.7,100,0.00,,,0.76,Rainwise IP-100,2013-06-08 03:59:00,